Location: Gro�wechsungen
(51.4926°N, 10.6901°E)
Time: 10:13:41
(UTC+00:00)

HJ-1C - Pass Details

Date: 18 September 2020
Orbit: 432 x 443 km, 97.1° (Epoch: 25 October)

Event Time Altitude Azimuth Distance (km) Brightness Sun altitude
Rises 18:25:35 0° 176° (S) 2,398 6.9 -10.3°
Reaches altitude 10° 18:27:37 10° 181° (S) 1,536 5.9 -10.6°
Maximum altitude 18:30:51 53° 260° (W) 540 4.2 -11.1°
Drops below altitude 10° 18:34:07 10° 338° (NNW) 1,554 6.7 -11.6°
Sets 18:36:11 0° 344° (NNW) 2,429 7.6 -11.9°
